Powrót do katalogu

STARLINK-32573

AktywnyŁącznośćVLEO
NORAD 61725·PAYLOAD·🇺🇸 United States

Wystrzelony Oct 30, 2024 z Cape Canaveral Space Force Station

Loading…

Następne Przeloty (najbliższe 24 godziny)

TLE

ŚwieżeSource: CelesTrak SupGP

Epoka: Sep 14, 2026, 21:19 UTC

1 61725C 24196U   26257.88868056  .00016055  00000+0  47458-3 0  2578
2 61725  53.1587 300.1387 0001331  82.9822  56.9545 15.34366979    11

Śledź STARLINK-32573 w czasie rzeczywistym z AllMySat

Download on the App Store